Miscellaneous Local Product
Issued by NWS Hastings, NE

Home | Current Version | Previous Version | Text Only | Print | Product List | Glossary On
Versions: 1 2 3 4 5 6 7 8 9 10 11 12 13 14 15 16 17 18 19 20 21 22 23 24 25 26 27 28 29 30 31 32 33 34 35 36 37 38 39 40 41 42 43 44 45 46 47 48 49 50
000
AXUS43 KGID 220002
MISGRI

GID CWA HOURLY WEATHER ROUNDUP
NATIONAL WEATHER SERVICE HASTINGS NE
700 PM CDT TUE OCT 21 2014

NOTE: "FAIR" INDICATES FEW OR NO CLOUDS BELOW 12,000 FEET WITH NO
SIGNIFICANT WEATHER AND/OR OBSTRUCTIONS TO VISIBILITY.

...SOUTH CENTRAL NEBRASKA...

CITY           SKY/WX    TMP DP  RH WIND       PRES   REMARKS
GRAND ISLAND   CLEAR     69  51  52 SE8       29.97S
HASTINGS       CLEAR     69  50  50 SE12      29.97S
KEARNEY        CLEAR     68  52  56 SE12      29.96S
ORD            CLEAR     69  50  50 SE10      29.92F
YORK           CLEAR     64  43  45 SE7       30.00R
AURORA         CLEAR     66  42  42 SE7       29.99R
LEXINGTON      CLEAR     71  57  61 SE12      29.93S
HOLDREGE       CLEAR     69  55  59 S14       29.94S
HEBRON         CLEAR     65  45  47 SE6       30.00S

...NEBRASKA PANHANDLE...

CITY           SKY/WX    TMP DP  RH WIND       PRES   REMARKS
CHADRON        PTCLDY    71  46  40 S13       29.78R
ALLIANCE       PTCLDY    61  46  57 S6        29.84F
SCOTTSBLUFF    MOCLDY    67  44  43 W10       29.85S
SIDNEY         CLEAR     67  45  45 S7        29.87F

...WESTERN AND NORTH CENTRAL NEBRASKA...

CITY           SKY/WX    TMP DP  RH WIND       PRES   REMARKS
VALENTINE      MOCLDY    71  52  50 SE9       29.84F
AINSWORTH      PTCLDY    68  52  55 S12       29.87F
ONEILL         CLEAR     69  37  30 SE13G18   29.93S
BROKEN BOW     CLEAR     69  53  56 SE9       29.93R
IMPERIAL       CLEAR     73  49  42 SE14      29.87F
NORTH PLATTE   CLEAR     72  53  51 SE12      29.88F
MCCOOK         CLEAR     73  54  51 SE12      29.91F

...EASTERN NEBRASKA...

CITY           SKY/WX    TMP DP  RH WIND       PRES   REMARKS
NORFOLK        CLEAR     67  43  41 SE12      29.98R
SO SIOUX CITY  CLEAR     67  42  40 SE8       30.01S
TEKAMAH        CLEAR     62  41  46 SE9       30.02S
COLUMBUS       CLEAR     66  41  39 SE8       30.01R
ALBION         CLEAR     66  37  33 SE7       29.97S
OMAHA EPPLEY   CLEAR     63  40  42 SE10      30.03S
MILLARD        CLEAR     67  41  39 SE6       30.02F
LINCOLN        CLEAR     66  43  43 SE9       30.02R
NEBRASKA CITY  CLEAR     65  30  27 SE7       30.04S
BEATRICE       CLEAR     67  42  40 SE7       30.01S
FALLS CITY     CLEAR     62  38  40 SE6       30.04S

...NORTHERN KANSAS...

CITY           SKY/WX    TMP DP  RH WIND       PRES   REMARKS
GOODLAND       CLEAR     71  45  39 S14       29.93R
HILL CITY      CLEAR     74  55  51 SE7       29.95S
NORTON         CLEAR     73  52  46 SE8       29.93
PHILLIPSBURG   CLEAR     75  59  57 SE7       29.95R
SMITH CENTER   CLEAR     72  55  56 SE12      29.97R
BELOIT         CLEAR     72  54  53 SE7       29.97R
HAYS           CLEAR     72  55  56 S10       29.97R
RUSSELL        PTCLDY    70  58  65 SE9       29.96R
CONCORDIA      CLEAR     66  54  65 SE8       29.99S
SALINA         CLEAR     72  58  61 SE8       29.99R
TOPEKA         CLEAR     65  44  46 E5        30.04S



USA.gov is the U.S. government's official web portal to all federal, state and local government web resources and services.